Tracking 32954 objects as of 18-Jan-2026
HD Live streaming from Space Station
objects crossing your sky now

DELTA 1 DEB

Track DELTA 1 DEB now!
10-day predictions


NORAD ID: 10754
Int'l Code: 1976-077BB
Perigee: 1,494.4 km
Apogee: 1,690.4 km
Inclination: 102.7 °
Period: 117.9 minutes
Semi major axis: 7963 km
RCS: 0.0279 m2 (small)
Launch date: July 29, 1976
Source: United States (US)
Launch site: AIR FORCE WESTERN TEST RANGE (AFWTR)

Note: This is SATELLITE DEBRIS
Your satellite tracking list
Your tracking list is empty




NASA's NSSDC Master Catalog

Two Line Element Set (TLE):
1 10754U 76077BB  26017.72625257 -.00000040  00000-0  55320-4 0  9990
2 10754 102.7009   5.2801 0123066 348.3529 184.4120 12.21682588207064
Source of the keplerian elements: AFSPC